CAN3732 SKBO-SKRG

Flight info

Callsign CAN3732
Flight time N/A
Altitude 22000
Route TOBKI4R VASIL W36 NIRSO NIRSO3C
Aircraft B738/M-SDE2E3FGHIRWXY/LB1

Departure

Time N/A
Airport El Dorado International Airport (SKBO)

Arrival

Time 2026-04-24 19:02
Airport Jose Maria Córdova International Airport (SKRG)
Time Latitude Longitude Altitude Speed Heading
2026-04-24 18:54 5.67604 -75.41655 17791 ft 321 kts 356°
2026-04-24 18:55 5.72005 -75.41901 17059 ft 309 kts 355°
2026-04-24 18:55 5.74116 -75.42017 16700 ft 302 kts 356°
2026-04-24 18:55 5.76211 -75.42132 16341 ft 296 kts 355°
2026-04-24 18:56 5.78243 -75.42224 15975 ft 289 kts 357°
2026-04-24 18:56 5.80240 -75.42206 15604 ft 284 kts
2026-04-24 18:56 5.82217 -75.42117 15235 ft 278 kts
2026-04-24 18:56 5.84146 -75.42024 14871 ft 273 kts
2026-04-24 18:57 5.86020 -75.41946 14515 ft 266 kts
2026-04-24 18:57 5.87860 -75.41886 14149 ft 259 kts
2026-04-24 18:57 5.89672 -75.41838 13737 ft 255 kts 358°
2026-04-24 18:57 5.91408 -75.41904 13362 ft 249 kts 354°
2026-04-24 18:58 5.93150 -75.42035 12971 ft 245 kts 355°
2026-04-24 18:58 5.94839 -75.42119 12608 ft 241 kts 356°
2026-04-24 18:58 5.96517 -75.42159 12247 ft 237 kts 357°
2026-04-24 18:58 5.98175 -75.42181 11883 ft 233 kts 358°
2026-04-24 18:59 5.99778 -75.42181 11470 ft 224 kts
2026-04-24 18:59 6.01303 -75.42120 11084 ft 211 kts
2026-04-24 18:59 6.02740 -75.42087 10687 ft 201 kts 360°
2026-04-24 18:59 6.04114 -75.42096 10282 ft 194 kts 358°
2026-04-24 19:00 6.05471 -75.42125 9814 ft 190 kts 356°
2026-04-24 19:00 6.06754 -75.42191 9451 ft 181 kts 355°
2026-04-24 19:00 6.07991 -75.42260 9108 ft 173 kts 355°
2026-04-24 19:00 6.09174 -75.42334 8824 ft 169 kts 356°
2026-04-24 19:01 6.10376 -75.42343 8467 ft 170 kts 359°
2026-04-24 19:01 6.11552 -75.42358 7991 ft 172 kts 359°
2026-04-24 19:01 6.12741 -75.42346 7614 ft 165 kts
2026-04-24 19:01 6.13883 -75.42323 7319 ft 164 kts
2026-04-24 19:02 6.14651 -75.42313 7098 ft 165 kts
2026-04-24 19:02 6.16039 -75.42305 6963 ft 139 kts 360°
2026-04-24 19:02 6.16709 -75.42314 6968 ft 48 kts 359°
2026-04-24 19:02 6.16913 -75.42331 6976 ft 24 kts 347°
2026-04-24 19:03 6.17035 -75.42374 6981 ft 14 kts 334°
2026-04-24 19:03 6.17095 -75.42408 6984 ft 5 kts 330°
2026-04-24 19:03 6.17096 -75.42409 6984 ft 0 kts 330°
2026-04-24 19:04 6.17097 -75.42409 6984 ft 0 kts 330°
2026-04-24 19:04 6.17131 -75.42429 6985 ft 11 kts 329°
2026-04-24 19:04 6.17182 -75.42502 6989 ft 12 kts 282°
2026-04-24 19:04 6.17184 -75.42566 6991 ft 10 kts 262°
2026-04-24 19:05 6.17149 -75.42621 6993 ft 7 kts 232°
2026-04-24 19:05 6.17136 -75.42650 6994 ft 2 kts 260°
2026-04-24 19:05 6.17134 -75.42671 6994 ft 4 kts 266°
2026-04-24 19:05 6.17134 -75.42673 6995 ft 0 kts 267°